WA1NHP Weather Reports


time (UTC)temp
C
wind
direction
speed
KPH
gust
KPH
rain 1hr
cm
rain 24hr
cm
rain mn
cm
humidity
%
barometer
mb
20260510193404 20 266 6.4 16.1 0.00 0.38 0.00 60 1023.9
20260510192403 19 271 4.8 16.1 0.00 0.41 0.00 63 1023.9
20260510191404 20 275 1.6 22.5 0.00 0.43 0.00 65 1023.9
20260510190404 20 264 4.8 14.5 0.00 0.46 0.00 71 1023.9
20260510185403 17 245 0.0 4.8 0.00 0.48 0.00 75 1023.9
20260510184404 17 295 1.6 9.7 0.00 0.51 0.00 74 1023.9
20260510183404 17 338 0.0 16.1 0.00 0.53 0.00 72 1023.9
20260510182404 19 269 9.7 20.9 0.00 0.56 0.00 65 1023.9
20260510181404 20 281 4.8 20.9 0.00 0.58 0.00 65 1023.9
20260510180404 20 228 4.8 19.3 0.00 0.61 0.00 67 1023.9
20260510175404 20 237 3.2 16.1 0.00 0.64 0.00 68 1023.9
20260510174403 19 228 8.0 16.1 0.00 0.66 0.00 70 1023.9
20260510173404 18 206 4.8 19.3 0.00 0.69 0.00 70 1023.9
20260510172404 19 265 8.0 24.1 0.00 0.74 0.00 72 1023.9
20260510171404 18 183 6.4 20.9 0.00 0.76 0.00 72 1023.9
20260510170404 17 215 11.3 20.9 0.00 0.79 0.00 76 1023.9
20260510165404 17 203 6.4 19.3 0.00 0.81 0.00 73 1023.9
20260510164403 17 201 4.8 20.9 0.00 0.86 0.00 71 1023.9
20260510163404 18 196 4.8 14.5 0.00 0.89 0.00 73 1023.9
20260510162404 18 216 8.0 20.9 0.00 0.94 0.00 73 1023.9
20260510161403 17 148 0.0 19.3 0.00 0.99 0.00 78 1023.9
20260510160404 17 207 11.3 16.1 0.00 1.02 0.00 77 1023.9
20260510155403 17 233 4.8 22.5 0.00 1.04 0.00 78 1023.9
20260510154404 16 146 4.8 22.5 0.00 1.07 0.00 80 1023.9
20260510153405 16 160 0.0 9.7 0.00 1.09 0.00 84 1023.9
20260510152404 15 114 4.8 11.3 0.00 1.12 0.00 83 1023.9
20260510151404 15 180 4.8 11.3 0.00 1.14 0.00 83 1023.9
20260510150403 15 212 3.2 19.3 0.00 1.17 0.00 88 1023.9
20260510145404 14 189 8.0 19.3 0.00 1.17 0.00 89 1023.9
20260510144403 13 183 4.8 14.5 0.00 1.19 0.00 88 1023.9
20260510143404 13 168 3.2 12.9 0.00 1.22 0.00 91 1023.9
20260510142404 12 202 0.0 11.3 0.00 1.22 0.00 92 1023.9
20260510141404 12 185 6.4 19.3 0.00 1.22 0.00 92 1023.9
20260510140404 12 202 3.2 11.3 0.00 1.22 0.00 94 1023.9
20260510135405 12 198 4.8 12.9 0.00 1.22 0.00 95 1023.9
20260510134404 11 240 0.0 12.9 0.00 1.24 0.00 95 1023.9
20260510133404 11 131 1.6 11.3 0.00 1.24 0.00 96 1023.9
20260510132403 11 201 1.6 16.1 0.00 1.24 0.00 97 1023.9
20260510131404 11 199 4.8 16.1 0.00 1.27 0.00 97 1023.9
20260510130404 11 178 4.8 11.3 0.00 1.27 0.00 98 1023.9
20260510125403 11 209 4.8 11.3 0.00 1.27 0.00 98 1023.9
20260510124404 10 201 1.6 11.3 0.00 1.30 0.00 98 1023.9
20260510123403 10 205 4.8 8.0 0.00 1.30 0.00 98 1023.9
20260510122403 10 236 4.8 12.9 0.00 1.30 0.00 98 1023.9
20260510121403 10 209 3.2 11.3 0.00 1.32 0.00 98 1023.9
20260510120404 10 196 4.8 14.5 0.00 1.32 0.00 98 1023.9
20260510115404 10 214 6.4 19.3 0.00 1.35 0.00 98 1023.9
20260510114403 10 217 4.8 19.3 0.00 1.35 0.00 98 1023.9
20260510113404 10 226 1.6 4.8 0.00 1.37 0.00 98 1023.9
20260510112403 9 192 4.8 9.7 0.00 1.40 0.00 98 1023.9
20260510111404 9 195 1.6 14.5 0.00 1.40 0.00 98 1023.9
20260510110404 9 186 6.4 14.5 0.00 1.40 0.00 98 1023.9
20260510105405 9 185 6.4 11.3 0.00 1.40 0.00 98 1023.9
20260510104404 9 226 4.8 12.9 0.00 1.40 0.00 98 1023.9
20260510103404 9 185 4.8 11.3 0.00 1.40 0.00 98 1023.9
20260510102404 9 201 4.8 12.9 0.00 1.40 0.00 98 1023.9
20260510101404 9 178 3.2 4.8 0.00 1.40 0.00 98 1023.9
20260510095403 9 220 3.2 14.5 0.00 1.40 0.00 98 1023.9
20260510094403 9 206 3.2 14.5 0.00 1.40 0.00 98 1023.9
20260510093403 9 188 4.8 19.3 0.00 1.40 0.00 98 1023.9
20260510092404 9 198 3.2 16.1 0.00 1.40 0.00 98 1023.9
20260510091404 9 160 3.2 19.3 0.00 1.40 0.00 98 1023.9
20260510090404 9 192 4.8 12.9 0.00 1.40 0.00 98 1023.9
20260510085403 9 197 8.0 16.1 0.00 1.40 0.00 98 1023.9
20260510083404 9 222 3.2 11.3 0.00 1.40 0.00 98 1023.9
20260510082404 9 198 1.6 8.0 0.00 1.40 0.00 98 1023.9
20260510081404 9 193 4.8 14.5 0.00 1.40 0.00 98 1023.9
20260510080404 9 199 4.8 8.0 0.00 1.40 0.00 98 1023.9
20260510075404 9 203 0.0 0.0 0.00 1.40 0.00 98 1023.9
20260510074404 9 203 0.0 8.0 0.00 1.40 0.00 98 1023.9
20260510073404 9 202 3.2 11.3 0.00 1.40 0.00 98 1023.9
20260510072403 9 196 0.0 3.2 0.00 1.40 0.00 98 1023.9
20260510071404 9 196 0.0 0.0 0.00 1.40 0.00 98 1023.9
20260510070403 9 196 0.0 1.6 0.00 1.40 0.00 98 1023.9
20260510065403 9 196 0.0 4.8 0.00 1.40 0.00 98 1023.9
20260510063404 9 191 6.4 14.5 0.00 1.40 0.00 98 1023.9
20260510062404 9 217 3.2 9.7 0.00 1.40 0.00 98 1023.9
20260510061404 9 219 3.2 14.5 0.00 1.40 0.00 98 1023.9
20260510060403 9 194 0.0 4.8 0.00 1.40 0.00 98 1023.9
20260510055404 9 189 0.0 4.8 0.00 1.40 0.00 98 1023.9
20260510054403 9 194 0.0 8.0 0.00 1.40 0.00 98 1023.9
20260510053404 9 193 1.6 11.3 0.00 1.40 0.00 98 1023.9
20260510052404 9 152 4.8 11.3 0.00 1.40 0.00 98 1023.9
20260510051404 9 170 3.2 9.7 0.00 1.40 0.00 98 1023.9
20260510050404 9 167 3.2 12.9 0.00 1.40 0.00 98 1023.9
20260510045404 9 165 3.2 14.5 0.00 1.40 0.00 98 1023.9
20260510044404 9 161 1.6 12.9 0.00 1.40 0.00 98 1023.9
20260510043404 9 189 3.2 12.9 0.00 1.40 0.00 98 1023.9
20260510042404 8 161 3.2 11.3 0.00 1.40 0.00 98 1023.9
20260510041403 8 134 1.6 11.3 0.00 1.40 0.00 98 1023.9
20260510040404 8 165 0.0 9.7 0.00 1.40 0.00 98 1023.9
20260510035403 8 135 0.0 4.8 0.00 1.40 1.40 98 1023.9
20260510034404 8 131 0.0 3.2 0.00 1.40 1.40 98 1023.9
20260510033404 8 130 0.0 4.8 0.00 1.40 1.40 98 1023.9
20260510032403 8 124 0.0 11.3 0.00 1.40 1.40 98 1023.9
20260510030404 8 140 1.6 11.3 0.00 1.40 1.40 98 1023.9
20260510025404 8 135 3.2 11.3 0.00 1.40 1.40 97 1023.9
20260510024405 8 140 0.0 8.0 0.00 1.40 1.40 98 1023.9
20260510023403 8 148 0.0 8.0 0.00 1.40 1.40 97 1023.9
20260510022404 8 138 1.6 11.3 0.00 1.40 1.40 97 1023.9
20260510021403 8 149 1.6 9.7 0.00 1.40 1.40 98 1023.9
20260510020404 8 172 0.0 4.8 0.00 1.40 1.40 98 1023.9
20260510015404 8 151 0.0 4.8 0.00 1.40 1.40 98 1023.9
20260510014403 8 164 3.2 12.9 0.00 1.40 1.40 98 1023.9
20260510013404 8 138 0.0 8.0 0.00 1.40 1.40 97 1023.9
20260510012404 8 140 0.0 9.7 0.00 1.40 1.40 97 1023.9
20260510011404 8 163 1.6 9.7 0.00 1.40 1.40 97 1023.9
20260510010403 8 150 0.0 11.3 0.00 1.40 1.40 97 1023.9
20260510005404 8 127 0.0 11.3 0.00 1.40 1.40 97 1023.9
20260510004404 8 166 1.6 9.7 0.00 1.40 1.40 97 1023.9
20260510003403 8 142 1.6 12.9 0.00 1.40 1.40 97 1023.9
20260510002404 8 157 3.2 12.9 0.00 1.40 1.40 97 1023.9
20260510001404 8 162 4.8 12.9 0.00 1.40 1.40 97 1023.9
20260509235404 8 166 8.0 16.1 0.00 1.40 1.40 97 1023.9
20260509234404 8 187 4.8 11.3 0.00 1.40 1.40 97 1023.9
20260509233403 8 151 1.6 16.1 0.03 1.40 1.40 97 1023.9
20260509232403 8 152 3.2 12.9 0.03 1.40 1.40 97 1023.9
20260509231403 8 125 4.8 11.3 0.03 1.40 1.40 97 1023.9
20260509225404 8 131 1.6 14.5 0.03 1.40 1.40 97 1023.9
20260509224405 8 135 1.6 12.9 0.03 1.40 1.40 97 1023.9
20260509223404 8 134 3.2 16.1 0.03 1.37 1.37 97 1023.9
20260509222404 8 156 4.8 12.9 0.08 1.37 1.37 97 1023.9
20260509221404 8 125 0.0 14.5 0.10 1.37 1.37 97 1023.9
20260509220404 8 113 3.2 14.5 0.13 1.37 1.37 97 1023.9
20260509215404 8 115 0.0 14.5 0.15 1.37 1.37 97 1023.9
20260509212404 8 137 1.6 9.7 0.15 1.30 1.30 97 1023.9
20260509211403 8 137 1.6 12.9 0.13 1.27 1.27 97 1023.9
20260509210404 8 130 1.6 14.5 0.13 1.24 1.24 97 1023.9
20260509205405 8 153 4.8 14.5 0.13 1.22 1.22 97 1023.9
20260509203404 8 152 3.2 9.7 0.15 1.17 1.17 97 1023.9
20260509202404 8 126 3.2 11.3 0.15 1.14 1.14 97 1023.9
20260509201404 8 130 1.6 12.9 0.18 1.14 1.14 97 1023.9
20260509200404 8 132 4.8 11.3 0.18 1.12 1.12 97 1023.9
20260509195404 7 125 1.6 4.8 0.18 1.09 1.09 97 1023.9
20260509194404 7 142 0.0 0.0 0.18 1.07 1.07 96 1023.9